www.pogodaiklimat.ru

Погода и климат >> Архив погоды >> Норвегия >> Рёрус аэропорт


ПОГОДА в Рёрус аэропорту

  • Прогноз погоды в Рёрус аэропорту
  • Монитор погоды в Рёрус аэропорту

АРХИВ ПОГОДЫ в Рёрус аэропорту

Время (UTC), дата Ветер
(напр.,м/с)
 
Видим.   Явления Облачность Т
(С)
Тd
(С)
f
(%)
Тe
(С)
Тes
(С)
Комфортность P
(гПа)
Po
(гПа)
Тmin
(С)
Tmax
(С)
R
(мм)
R24
(мм)
S
(см)
01 12.08 штиль 0
{2}
н/о н/о +12.0 +12.0 100 +11 +11 1000.1 928.5
02 12.08 СЗ 1
{2}
н/о н/о +12.0 +12.0 100 +12 +12 999.9 928.4
03 12.08 штиль 0
{1}
н/о н/о +12.1 +12.1 100 +11 +11 999.5 928.1
04 12.08 штиль 0
{1}
н/о н/о +12.4 +12.4 100 +12 +12 999.3 927.9
05 12.08 штиль 0
{2}
н/о н/о +12.8 +12.8 100 +12 +12 999.0 927.7
06 12.08 ЮЗ 1
{2}
20 км 10/10 600 м
[Sc]
+13.0 +13.0 100 +13 +13 998.6 927.4 +11.7 +17.1
07 12.08 ЮЗ 2
{4}
н/о н/о +13.1 +13.1 100 +12 +12 998.5 927.4
08 12.08 З 2
{7}
н/о н/о +12.5 +12.5 100 +11 +11 999.4 928.0
09 12.08 ЮЗ 2
{4}
н/о н/о +12.5 +12.5 100 +11 +11 999.9 928.5
10 12.08 ЮЗ 3
{4}
н/о н/о +12.7 +12.7 100 +11 +11 999.9 928.5
11 12.08 ЮЗ 1
{4}
н/о н/о +13.2 +13.2 100 +13 +13 999.9 928.6
12 12.08 З 2
{7}
10 км ливневой дождь 10/10 600 м
[Cb cap]
+13.5 +13.0 97 +13 +13 1000.1 928.9
13 12.08 С 2
{5}
н/о н/о +12.9 +12.9 100 +12 +12 1000.5 929.1
14 12.08 СЗ 3
{4}
н/о н/о +13.7 +13.2 97 +12 +12 1000.5 929.3
15 12.08 СЗ 5
{7}
н/о н/о +13.3 +12.5 95 +11 +11 1000.9 929.6
16 12.08 С 4
{8}
н/о н/о +12.5 +11.6 94 +10 +10 1001.5 929.9
17 12.08 СЗ 5
{8}
н/о н/о +12.0 +11.2 95 +9 +9 1001.9 930.3
18 12.08 С 6
{9}
10 км сильн. дождь {ливн. осадки} 10/10 600 м
[Sc]
+11.1 +10.6 97 +8 +8 1002.7 930.7 +11.1 +13.9 24
19 12.08 З 1
{9}
н/о н/о +10.3 +10.2 99 +10 +10 1003.5 931.3
20 12.08 З 2
{7}
н/о н/о +9.8 +9.2 96 +8 +8 1003.6 931.3
21 12.08 С 1
{4}
н/о н/о +9.2 +9.1 99 +8 +8 1003.9 931.4
22 12.08 С 2
{4}
н/о н/о +8.9 +8.8 99 +7 +7 1004.1 931.5
23 12.08 штиль 0
{5}
н/о н/о +8.9 +8.9 100 +8 +8 1004.3 931.7
00 13.08 СЗ 4
{9}
н/о н/о +8.7 +8.0 95 +5 +5 1004.3 931.7
01 13.08 СЗ 1
{6}
н/о н/о +8.5 +7.9 96 +8 +8 1004.4 931.7
02 13.08 СЗ 2
{7}
н/о н/о +8.2 +7.6 96 +6 +6 1004.5 931.7
03 13.08 СЗ 3
{5}
н/о н/о +8.2 +7.8 97 +5 +5 1004.3 931.5
04 13.08 СЗ 3
{5}
н/о н/о +8.4 +7.0 91 +6 +6 1004.0 931.3
05 13.08 СЗ 2
{5}
н/о н/о +8.6 +7.7 94 +7 +7 1003.6 931.0
06 13.08 СЗ 3
{7}
20 км 10/10 600 м
[Sc]
+8.8 +7.4 91 +6 +6 1003.6 931.1 +8.1 +11.1 4
07 13.08 СЗ 3
{5}
н/о н/о +8.9 +7.8 93 +6 +6 1003.8 931.2
08 13.08 СЗ 2
{5}
н/о н/о +9.4 +7.9 90 +8 +8 1003.7 931.3
09 13.08 СЗ 2
{5}
н/о н/о +9.6 +8.0 90 +8 +8 1003.6 931.3
10 13.08 С 4
{6}
н/о н/о +10.2 +7.6 84 +8 +8 1003.4 931.2
11 13.08 С 4
{7}
н/о н/о +10.3 +7.9 85 +8 +8 1003.5 931.3
12 13.08 СЗ 4
{7}
20 км 10/10 600 м
[Sc]
+10.3 +8.6 89 +8 +8 1003.6 931.4
13 13.08 СЗ 3
{6}
н/о н/о +10.6 +6.8 77 +9 +9 1003.6 931.5
14 13.08 СЗ 3
{5}
н/о н/о +10.1 +8.0 87 +8 +8 1003.8 931.5
15 13.08 СЗ 3
{7}
н/о н/о +9.4 +7.0 85 +7 +7 1004.3 931.8
16 13.08 СЗ 3
{5}
н/о н/о +8.9 +7.2 89 +6 +6 1004.7 932.1
17 13.08 С 1
{4}
н/о н/о +8.6 +7.5 93 +8 +8 1005.2 932.5
18 13.08 СЗ 3
{7}
20 км {дождь} 10/10 600 м
[Sc]
+8.2 +7.3 94 +5 +5 1005.4 932.5 +8.2 +10.8 3
19 13.08 С 1
{3}
н/о н/о +7.7 +7.3 97 +7 +7 1005.7 932.7
20 13.08 С 3
{5}
н/о н/о +7.1 +6.4 95 +4 +4 1006.4 933.2
21 13.08 С 2
{4}
н/о н/о +6.8 +6.4 97 +4 +4 1006.5 933.3
22 13.08 С 2
{5}
н/о н/о +6.7 +6.0 95 +4 +4 1006.6 933.3
23 13.08 штиль 0
{4}
н/о н/о +6.1 +5.7 97 +5 +5 1006.9 933.4
00 14.08 ЮЗ 1
{5}
н/о н/о +5.2 +5.2 100 +4 +4 1007.3 933.6
01 14.08 штиль 0
{2}
н/о н/о +4.4 +4.4 100 +3 +3 1007.6 933.6
02 14.08 СЗ 1
{2}
н/о н/о +4.8 +4.8 100 +3 +3 1007.4 933.6
03 14.08 ЮЗ 3
{4}
н/о н/о +4.9 +4.9 100 +1 +1 1007.5 933.6
04 14.08 З 1
{3}
н/о н/о +4.2 +4.2 100 +3 +3 1007.5 933.6
05 14.08 штиль 0
{2}
н/о н/о +5.9 +5.9 100 +5 +5 1007.1 933.5
06 14.08 штиль 0
{4}
25 км {морось, туман} 4/4 600 м
[Sc]
+7.7 +3.9 77 +7 +9 1007.0 933.9 +4.2 +8.2 0.3
07 14.08 Ю 1
{2}
н/о н/о +7.7 +4.3 79 +7 +7 1006.7 933.7
08 14.08 СЗ 1
{3}
н/о н/о +9.2 +4.0 70 +9 +9 1006.4 933.7
09 14.08 С 2
{4}
н/о н/о +11.0 +3.8 61 +10 +10 1006.1 933.9
10 14.08 СЗ 6
{8}
н/о н/о +10.7 +4.0 63 +8 +8 1006.2 934.0
11 14.08 СЗ 4
{7}
н/о н/о +10.7 +3.3 60 +9 +9 1006.4 934.1
12 14.08 С 3
{8}
25 км 9/9 600 м
[Sc]
+11.3 +4.3 62 +10 +11 1006.4 934.2
13 14.08 С 3
{7}
н/о н/о +10.9 +4.6 65 +9 +9 1006.7 934.4
14 14.08
{5}
н/о н/о +12.7 +4.9 59 1006.1 934.3
15 14.08 СВ 2
{9}
н/о н/о +11.9 +4.9 62 +11 +11 1006.3 934.3
16 14.08 С 2
{4}
н/о н/о +12.0 +5.4 64 +11 +11 1006.4 934.4
17 14.08 Ю 1
{7}
н/о н/о +8.5 +6.8 89 +8 +8 1007.9 935.0
18 14.08 штиль 0
{9}
15 км в посл. час морось {дождь} 9/9 600 м
[Sc]
+9.7 +8.1 90 +9 +9 1007.6 934.9 +7.3 +13.5 0.9
19 14.08 З 1
{2}
н/о н/о +8.0 +8.0 100 +7 +7 1008.2 935.1
20 14.08 ЮЗ 1
{1}
н/о н/о +7.2 +7.2 100 +6 +6 1008.5 935.2
21 14.08 штиль 0
{1}
н/о н/о +6.9 +6.9 100 +6 +6 1009.0 935.5
22 14.08 штиль 0
{1}
н/о н/о +6.8 +6.8 100 +6 +6 1009.2 935.7
23 14.08 штиль 0
{3}
н/о н/о +7.0 +7.0 100 +6 +6 1009.1 935.7
00 15.08 штиль 0
{3}
н/о н/о +6.6 +6.6 100 +5 +5 1009.5 936.0
01 15.08 С 1
{2}
н/о н/о +6.1 +6.1 100 +5 +5 1009.5 935.9
02 15.08 З 1
{2}
н/о н/о +5.3 +5.3 100 +4 +4 1009.8 935.9
03 15.08 СЗ 1
{2}
н/о н/о +5.1 +5.1 100 +4 +4 1009.7 935.8
04 15.08 штиль 0
{2}
н/о н/о +4.8 +4.8 100 +4 +4 1009.9 935.9
05 15.08 ЮЗ 1
{2}
н/о н/о +5.0 +5.0 100 +3 +3 1010.0 936.0
06 15.08 штиль 0
{2}
100 м туман ?/? +5.5 +5.5 100 +4 +4 1009.9 936.1 +4.5 +10.2 0.2
07 15.08 ЮЗ 1
{2}
н/о н/о +7.6 +7.6 100 +6 +6 1009.2 936.0
08 15.08 штиль 0
{2}
н/о н/о +9.7 +8.5 92 +9 +9 1008.5 935.8
09 15.08 ЮВ 2
{3}
н/о н/о +12.0 +6.1 67 +11 +11 1007.4 935.4
10 15.08 С 1
{3}
н/о н/о +11.9 +6.6 70 +12 +12 1006.9 934.9
11 15.08 В 3
{7}
н/о н/о +10.4 +7.5 82 +8 +8 1007.3 934.9
12 15.08 ЮВ 2
{7}
н/о н/о +14.2 +6.3 59 +14 +14 1006.0 934.5
13 15.08 ЮВ 2
{5}
н/о н/о +14.2 +6.1 58 +14 +14 1005.7 934.3
14 15.08 Ю 3
{6}
н/о н/о +14.5 +5.9 56 +14 +14 1005.5 934.2
15 15.08 Ю 4
{7}
н/о н/о +15.2 +4.0 47 +14 +14 1005.3 934.1
16 15.08 Ю 3
{6}
н/о н/о +15.4 +3.9 46 +15 +15 1005.0 933.9
17 15.08 ЮВ 3
{6}
н/о н/о +14.6 +5.7 55 +14 +14 1005.0 933.7
18 15.08 ЮВ 3
{7}
н/о {дождь} н/о +13.8 +6.4 61 +13 +13 1005.3 933.8 +5.5 +15.9 0.9
19 15.08 ЮЗ 2
{5}
н/о н/о +10.4 +6.9 79 +9 +9 1006.3 933.9
20 15.08 ЮЗ 3
{4}
н/о н/о +10.1 +4.7 69 +8 +8 1006.5 934.0
21 15.08 ЮВ 2
{8}
н/о н/о +10.0 +4.6 69 +9 +9 1006.5 934.1
22 15.08 ЮВ 2
{4}
н/о н/о +6.1 +4.3 88 +4 +4 1007.6 934.1
23 15.08 Ю 3
{6}
н/о н/о +9.1 +4.7 74 +7 +7 1006.5 933.8
00 16.08 Ю 4
{8}
н/о н/о +9.1 +5.3 77 +6 +6 1006.4 933.7
01 16.08 ЮВ 5
{8}
н/о н/о +10.3 +7.0 80 +7 +7 1005.9 933.5
02 16.08 В 3
{6}
н/о н/о +9.8 +7.2 84 +8 +8 1005.7 933.2
03 16.08 Ю 2
{7}
н/о н/о +10.0 +9.4 96 +8 +8 1005.5 933.1
04 16.08 ЮВ 3
{6}
н/о н/о +10.4 +9.6 95 +8 +8 1005.3 933.0
05 16.08 ЮВ 3
{5}
н/о н/о +10.4 +10.3 99 +8 +8 1005.4 933.1
06 16.08 Ю 2
{8}
3500 м слаб. дождь 10/8 300 м
[Frnb As op]
+10.5 +10.5 100 +9 +9 1005.4 933.2 +5.8 +13.8 4
07 16.08 ЮВ 1
{3}
н/о н/о +11.5 +10.1 91 +11 +11 1005.1 933.1
08 16.08 Ю 1
{4}
н/о н/о +11.9 +10.3 90 +12 +12 1005.1 933.1
09 16.08 штиль 0
{4}
н/о н/о +12.3 +10.7 90 +12 +12 1005.1 933.3
10 16.08 Ю 2
{3}
н/о н/о +12.9 +11.1 89 +12 +12 1005.2 933.5
11 16.08 Ю 2
{4}
н/о н/о +13.8 +10.8 82 +13 +13 1005.1 933.7
12 16.08 ЮЗ 3
{6}
25 км {дождь} 8/5 600 м
[Cu med, cong As trans Ci fib]
+16.0 +10.5 70 +16 +18 1004.5 933.6
13 16.08 Ю 4
{7}
н/о н/о +15.8 +9.5 66 +15 +15 1004.2 933.3
14 16.08 Ю 3
{7}
н/о н/о +17.5 +8.6 56 +18 +18 1003.5 933.0
15 16.08 ЮЗ 3
{6}
н/о н/о +17.6 +7.1 50 +18 +18 1003.2 932.8
16 16.08 ЮВ 4
{8}
н/о н/о +16.6 +9.5 63 +16 +16 1003.2 932.5
17 16.08 ЮВ 4
{8}
н/о н/о +15.6 +10.4 71 +15 +15 1003.4 932.5
18 16.08 ЮВ 4
{8}
20 км 10/1 600 м
[Sc As trans]
+14.9 +10.5 75 +14 +14 1003.7 932.6 +10.5 +18.3 0.5
19 16.08 СВ 1
{7}
н/о н/о +13.4 +10.9 85 +14 +14 1004.2 932.7
20 16.08 СВ 3
{5}
н/о н/о +13.4 +10.8 84 +12 +12 1004.4 932.9
21 16.08 В 3
{6}
н/о н/о +14.0 +10.4 79 +13 +13 1004.1 932.8
22 16.08 ЮВ 3
{5}
н/о н/о +13.1 +11.0 87 +12 +12 1004.2 932.6
23 16.08 ЮВ 2
{6}
н/о н/о +12.7 +11.9 95 +12 +12 1004.0 932.4
00 17.08 СВ 2
{7}
н/о н/о +12.0 +12.0 100 +11 +11 1003.8 932.1
01 17.08 В 4
{7}
н/о н/о +12.8 +11.5 92 +11 +11 1003.3 931.8
02 17.08 ЮВ 3
{8}
н/о н/о +12.3 +11.2 93 +11 +11 1003.0 931.3
03 17.08 ЮВ 2
{4}
н/о н/о +11.8 +11.7 99 +11 +11 1002.6 930.8
04 17.08 Ю 5
{10}
н/о н/о +12.0 +11.2 95 +9 +9 1002.0 930.3
05 17.08 ЮЗ 3
{7}
н/о н/о +12.2 +11.3 94 +11 +11 1001.8 930.2
06 17.08 Ю 4
{10}
15 км дождь {морось} 9/9 300 м
[Sc Ac cuf]
+12.2 +10.3 88 +10 +10 1001.8 930.2 +11.3 +15.0 4
07 17.08 Ю 6
{12}
н/о н/о +11.7 +7.8 77 +9 +9 1001.9 930.1
08 17.08 Ю 4
{9}
н/о н/о +11.7 +8.4 80 +10 +10 1001.5 929.8
09 17.08 ЮВ 6
{9}
н/о н/о +12.3 +9.5 83 +10 +10 1001.0 929.4
10 17.08 Ю 6
{10}
н/о н/о +13.6 +9.1 74 +11 +11 1000.0 928.9
11 17.08 Ю 8
{12}
н/о н/о +13.2 +8.7 74 +10 +10 999.9 928.7
12 17.08 Ю 8
{13}
20 км 10/10 300 м
[Sc]
+12.8 +9.1 78 +10 +10 999.5 928.2
13 17.08 Ю 7
{11}
н/о н/о +13.2 +9.7 79 +11 +11 998.6 927.5
14 17.08 ЮВ 8
{16}
н/о н/о +13.4 +10.0 80 +11 +11 997.9 926.9
15 17.08 ЮВ 7
{16}
н/о н/о +12.9 +10.3 84 +10 +10 997.7 926.5
16 17.08 ЮВ 8
{14}
н/о н/о +12.7 +10.1 84 +10 +10 996.8 925.7
17 17.08 Ю 3
{13}
н/о н/о +13.2 +10.7 85 +12 +12 997.0 925.9
18 17.08 В 3
{16}
15 км слаб. морось 9/9 300 м
[Sc]
+13.1 +11.2 88 +12 +12 996.7 925.7 +11.6 +13.7 0.1
19 17.08 ЮВ 6
{9}
н/о н/о +12.9 +11.5 91 +10 +10 996.6 925.6
20 17.08 Ю 3
{10}
н/о н/о +12.3 +11.7 96 +11 +11 996.9 925.7
21 17.08 ЮВ 5
{9}
н/о н/о +12.8 +12.3 97 +10 +10 996.7 925.6
22 17.08 ЮВ 4
{7}
н/о н/о +12.6 +11.5 93 +11 +11 996.8 925.6
23 17.08 З 2
{9}
н/о н/о +12.2 +10.8 91 +11 +11 997.3 926.1
00 18.08 В 4
{10}
н/о н/о +12.7 +10.8 88 +11 +11 996.9 925.8
01 18.08 Ю 4
{6}
н/о н/о +12.5 +10.4 87 +11 +11 997.2 926.0
02 18.08 Ю 4
{9}
н/о н/о +12.0 +9.4 84 +10 +10 997.6 926.3
03 18.08 ЮВ 4
{7}
н/о н/о +11.8 +9.4 85 +10 +10 997.8 926.3
04 18.08 Ю 3
{9}
н/о н/о +11.2 +9.0 86 +9 +9 998.1 926.6
05 18.08 ЮВ 4
{6}
н/о н/о +12.4 +10.1 86 +10 +10 998.0 926.7
06 18.08 Ю 3
{9}
15 км слаб. дождь {морось} 9/9 600 м
[Sc]
+12.0 +10.4 90 +10 +10 998.3 926.9 +10.9 +13.2 0.7
07 18.08 ЮВ 3
{6}
н/о н/о +12.6 +9.4 81 +11 +11 998.4 927.1
08 18.08 ЮЗ 3
{8}
н/о н/о +14.5 +8.5 67 +14 +14 998.0 927.2
09 18.08 ЮЗ 5
{9}
н/о н/о +14.9 +8.2 64 +14 +14 998.2 927.5
10 18.08 Ю 4
{9}
н/о н/о +15.8 +6.8 55 +15 +15 998.2 927.7
11 18.08 ЮЗ 4
{9}
н/о н/о +16.9 +5.2 46 +16 +16 998.1 927.9
12 18.08 Ю 4
{9}
25 км 8/8 1500 м
[Cu med, cong]
+17.3 +5.9 47 +17 +18 997.9 927.8
13 18.08 Ю 4
{8}
н/о н/о +16.8 +6.3 50 +16 +16 998.1 927.8
14 18.08 Ю 5
{10}
н/о н/о +16.6 +5.3 47 +16 +16 998.2 927.9
15 18.08 Ю 4
{11}
н/о н/о +17.7 +5.0 43 +17 +17 997.8 927.8
16 18.08 Ю 4
{8}
н/о н/о +16.0 +4.7 47 +15 +15 998.4 927.9
17 18.08 Ю 4
{9}
н/о н/о +16.1 +3.9 44 +15 +15 998.1 927.6
18 18.08 Ю 3
{11}
30 км 5/4 1500 м
[Cu hum Ac trans Ci ing]
+15.0 +4.7 50 +14 +15 998.4 927.7 +12.0 +17.9
19 18.08 Ю 2
{5}
н/о н/о +12.7 +6.5 66 +12 +12 999.3 928.0
20 18.08 Ю 3
{6}
н/о н/о +11.5 +6.6 72 +10 +10 999.4 927.8
21 18.08 ЮВ 3
{7}
н/о н/о +10.8 +6.2 73 +9 +9 999.4 927.6
22 18.08 ЮВ 2
{5}
н/о н/о +9.2 +5.9 80 +8 +8 999.8 927.6
23 18.08 СЗ 2
{4}
н/о н/о +5.5 +5.5 100 +3 +3 1000.7 927.5
00 19.08 штиль 0
{7}
н/о н/о +3.5 +3.5 100 +2 +2 1000.9 927.2
01 19.08 СЗ 3
{4}
н/о н/о +3.0 +3.0 100 -1 -1 1000.7 926.9

 

Местоположение метеостанции Рёрус аэропорт (Норвегия): широта 62.58 долгота 11.35 высота над уровнем моря 625 м.

В архиве по умолчанию представлена погода в Рёрус аэропорту за последнюю неделю. Архивные данные за месяц целиком и за предыдущие месяцы, начиная с января 2011 года, Вы можете получить, выбрав интересующий диапазон дат из раскрывающегося списка и нажав кнопку "Ввод!".


*Определитесь, кто Вы:
робот инопланетянин человек

Внимание! Время в таблицах - всемирное. Для получения местного времени необходимо прибавить поправку, которая равна 1 ч.

Смотрите также архив погоды в соседних городах и на ближайших метеорологических станциях:

Погода в Солендете (Норвегия) (26 км)
Погода в Тынсете (Норвегия) (47 км)
Погода в Котсой (Норвегия) (60 км)
Погода в Таннасе (Швеция) (69 км)
Погода на Сыларне (Швеция) (70 км)
Погода в Сокнедале (Норвегия) (72 км)
Погода во Флатруэте (Швеция) (72 км)
Погода в Сельбу (Норвегия) (74 км)
Погода в Блахамаррене (Швеция) (79 км)
Погода в Древсё (Норвегия) (85 км)

Пояснения к столбцам:

Ветер - указаны скорость ветра в м/с - средняя за 10 мин, порывы в срок и между сроками (в фигурных скобках) и направление, откуда дует ветер: С - северный, СВ - северо-восточный, В - восточный, ЮВ - юго-восточный, Ю - южный, ЮЗ - юго-западный, З - западный, СЗ - северо-западный.
Видимость - горизонтальная дальность видимости в метрах или километрах. При видимости от 1 до 10 км при отсутствии осадков обычно наблюдается дымка, при ухудшении видимости до 1 км и менее - туман. В сухую погоду видимость может ухудшаться дымом, пылью или мглою.
Явления - указаны атмосферные явления, наблюдавшиеся в срок или в последний час перед сроком; фигурными скобками обозначены явления, наблюдавшиеся между сроками (за 1-3 часа до срока); квадратными скобками обозначены град или гололедные отложения с указанием их диаметра в мм.
Облачность - указаны через наклонную черту общая и нижняя облачность в баллах и высота нижней границы облаков в метрах; квадратными скобками обозначены формы облаков: Ci - перистые, Cs - перисто-слоистые, Cc - перисто-кучевые, Ac - высококучевые, As - высокослоистые, Sc - слоисто-кучевые, Ns - слоисто-дождевые, Cu - кучевые, Cb - кучево-дождевые. Подробнее классификацию облаков см. в Атласе облаков (PDF).
T - Температура воздуха - температура, измеренная на высоте 2 м над землей.
Td - Температура точки росы - температура, при понижении до которой содержащийся в воздухе водяной пар достигнет насыщения.
f - Относительная влажность воздуха - влажноcть воздуха, измеренная на высоте 2 м над землей.
Te - Эффективная температура - температура, которую ощущает одетый по сезону человек в тени. Характеристика душности погоды. При расчете учитывается влияние влажности воздуха и скорости ветра на теплоощущения человека.
Tes - Эффективная температура на солнце - температура, которую ощущает человек, с поправкой на солнечный нагрев. Характеристика знойности погоды. Зависит от высоты солнца над горизонтом, облачности и скорости ветра. Ночью, в пасмурную погоду, а также при ветре 12 м/с и более поправка равна нулю.
P - Атмосферное давление - приведенное к уровню моря атмосферное давление.
Po - Атмосферное давление - измеренное на уровне метеостанции атмосферное давление.
Tmin - Минимальная температура - минимум температуры воздуха на высоте 2 м над землей.
Tmax - Максимальная температура - максимум температуры воздуха на высоте 2 м над землей.
R - Количество осадков - Количество выпавших осадков за период времени, мм. При наведении курсора мыши на число - период времени, за который выпало указанное количество осадков.
R24 - Количество осадков - Количество выпавших осадков за 24 часа, мм.
S - Снежный покров - Высота снежного покрова, см. При наведении курсора мыши на число - состояние снежного покрова и степень покрытия местности в баллах.